Weather History for Miami, FL

Change the Weather History Date:

Thursday, November 7, 2013

  Actual Average Record
Temperature  
Mean Temperature 81 °F 76 °F  
Max Temperature 88 °F 83 °F 88 °F (2013)
Min Temperature 73 °F 69 °F 53 °F (1907)
Degree Days  
Heating Degree Days 0 0  
Month to date heating degree days 0 0  
Since 1 July heating degree days 0 0  
Cooling Degree Days 16 11  
Month to date cooling degree days 103 82  
Year to date cooling degree days 4273 4154  
Growing Degree Days 30 (Base 50)    
Moisture  
Dew Point 69 °F    
Average Humidity 69    
Maximum Humidity 87    
Minimum Humidity 50    
Precipitation  
Precipitation 0.00 in 0.13 in 2.44 in (1982)
Month to date precipitation 0.03 0.95  
Year to date precipitation 60.05 57.54  
Snow  
Snow 0.00 in - - ()
Month to date snowfall 0.0  
Since 1 July snowfall 0.0  
Since 1 September snowfall 0.0  
Snow Depth 0.00 in    
Sea Level Pressure  
Sea Level Pressure 29.98 in    
Wind  
Wind Speed 4 mph (NNE)    
Max Wind Speed 12 mph    
Max Gust Speed 23 mph    
Visibility 10 miles    
Events      
T = Trace of Precipitation, MM = Missing Value Source: NWS Daily Summary

Daily Weather History Graph

Daily Weather History Graph

Search for Another Location

Airport:

Trip Planner

Search our weather history database for the weather conditions in past years. The results will help you decide how hot, cold, wet, or windy it might be!

Date:

Astronomy

Nov. 07, 2013 Rise Set
Actual Time 6:33 AM EST 5:35 PM EST
Civil Twilight 6:09 AM EST 5:59 PM EST
Nautical Twilight 5:42 AM EST 6:27 PM EST
Astronomical Twilight 5:15 AM EST 6:54 PM EST
Moon 10:35 AM EST (11/7) 9:49 PM EST (11/7)
Length of Visible Light 11h 50m
Length of Day
11h 02m
Waxing Crescent, 22% of the Moon is Illuminated
Nov 7
Waxing Crescent
Nov 10
First Quarter
Nov 17
Full
Nov 25
Last Quarter
Dec 2
New

Hourly Weather History & Observations

Time (EST) Temp. Heat Index Dew Point Humidity Pressure Visibility Wind Dir Wind Speed Gust Speed Precip Events Conditions
12:53 AM 75.0 °F - 69.1 °F 82% 30.01 in 10.0 mi NE 3.5 mph - N/A   Scattered Clouds
1:53 AM 75.0 °F - 69.1 °F 82% 29.99 in 10.0 mi Calm Calm - N/A   Partly Cloudy
2:53 AM 73.9 °F - 69.1 °F 85% 29.98 in 10.0 mi Calm Calm - N/A   Partly Cloudy
3:53 AM 73.9 °F - 68.0 °F 82% 29.96 in 10.0 mi Calm Calm - N/A   Scattered Clouds
4:53 AM 73.0 °F - 68.0 °F 84% 29.96 in 10.0 mi Calm Calm - N/A   Clear
5:53 AM 73.0 °F - 66.9 °F 81% 29.97 in 10.0 mi NNW 5.8 mph - N/A   Partly Cloudy
6:53 AM 73.0 °F - 68.0 °F 84% 30.00 in 10.0 mi Variable 5.8 mph - N/A   Mostly Cloudy
7:53 AM 75.0 °F - 69.1 °F 82% 30.00 in 10.0 mi Variable 4.6 mph - N/A   Mostly Cloudy
8:53 AM 79.0 °F - 69.1 °F 72% 30.02 in 10.0 mi North 5.8 mph - N/A   Mostly Cloudy
9:53 AM 82.0 °F 85.9 °F 70.0 °F 67% 30.03 in 10.0 mi Variable 5.8 mph - N/A   Scattered Clouds
10:53 AM 82.9 °F 86.5 °F 69.1 °F 63% 30.01 in 10.0 mi Variable 4.6 mph - N/A   Scattered Clouds
11:53 AM 84.9 °F 87.1 °F 66.0 °F 53% 30.00 in 10.0 mi Calm Calm - N/A   Mostly Cloudy
12:53 PM 87.1 °F 89.9 °F 66.9 °F 51% 29.97 in 10.0 mi WNW 5.8 mph - N/A   Mostly Cloudy
1:53 PM 88.0 °F 90.7 °F 66.9 °F 49% 29.94 in 10.0 mi NW 8.1 mph - N/A   Mostly Cloudy
2:53 PM 86.0 °F 89.4 °F 68.0 °F 55% 29.93 in 10.0 mi ENE 8.1 mph 23.0 mph N/A   Mostly Cloudy
3:53 PM 84.9 °F 88.8 °F 69.1 °F 59% 29.93 in 10.0 mi ENE 5.8 mph - N/A   Mostly Cloudy
4:53 PM 82.0 °F 85.5 °F 69.1 °F 65% 29.94 in 10.0 mi Variable 4.6 mph - N/A   Mostly Cloudy
5:53 PM 81.0 °F 83.8 °F 68.0 °F 65% 29.95 in 10.0 mi NE 5.8 mph - N/A   Mostly Cloudy
6:53 PM 80.1 °F 82.9 °F 69.1 °F 69% 29.97 in 10.0 mi NNE 4.6 mph - N/A   Mostly Cloudy
7:53 PM 80.1 °F 82.9 °F 69.1 °F 69% 29.98 in 10.0 mi NNE 5.8 mph - N/A   Mostly Cloudy
8:53 PM 78.1 °F - 69.1 °F 74% 29.98 in 10.0 mi NNE 8.1 mph - N/A   Mostly Cloudy
9:53 PM 77.0 °F - 70.0 °F 79% 29.98 in 10.0 mi Variable 3.5 mph - N/A   Clear
10:53 PM 75.9 °F - 69.1 °F 79% 29.97 in 10.0 mi NNE 3.5 mph - N/A   Clear
11:53 PM 75.0 °F - 69.1 °F 82% 29.97 in 10.0 mi Variable 4.6 mph - N/A   Scattered Clouds